Wind_Speed
32 33 33 33 34 35 35 36 36 35 36 37 37 37 37 37 38 37 38 39 40 40 41 42 42 42 42 42 42 42 43 43 43 43 43 43 43 44 44 45 45 45 45 46
34 34 34 35 35 36 36 37 36 36 38 39 39 38 38 38 38 38 39 40 40 41 42 42 43 43 43 43 43 44 44 44 44 44 44 44 45 45 45 46 46 46 46 47
35 35 36 36 37 37 38 38 38 39 39 40 41 40 39 39 39 39 40 41 41 42 43 43 44 44 44 44 44 45 45 45 45 45 46 46 46 46 47 47 47 47 47 48
36 36 37 37 37 38 39 39 40 40 41 41 42 43 40 40 40 40 41 42 43 43 44 44 44 45 45 45 46 46 46 47 48 47 47 47 47 47 48 48 48 49 49 49
37 37 37 38 38 39 40 40 41 41 42 43 42 43 42 41 41 41 42 43 44 44 44 44 45 46 46 46 47 47 47 48 49 48 48 48 48 48 48 49 48 49 49 49
37 37 38 39 39 39 40 40 41 42 42 44 42 43 43 41 41 41 42 43 44 44 45 45 46 46 47 47 48 48 48 48 49 49 49 49 48 48 48 48 48 49 49 49
37 37 37 38 38 39 39 39 40 41 42 43 42 43 43 42 41 41 42 42 43 44 44 45 46 47 47 48 48 48 48 49 49 49 49 49 49 49 50 50 50 50 49 50
38 37 37 37 37 38 38 38 39 41 43 43 42 43 41 40 40 41 41 41 42 42 43 45 46 47 48 48 48 49 49 50 50 50 50 50 49 50 51 51 50 51 51 51
38 38 37 36 36 37 37 37 38 40 42 43 42 42 40 39 39 40 41 41 41 41 42 43 44 46 47 48 48 48 49 50 50 50 50 51 51 51 51 51 51 51 51 52
38 39 37 37 37 37 38 38 38 39 40 41 41 40 39 38 38 39 39 39 40 41 43 44 44 45 46 47 47 47 49 50 51 51 51 51 52 52 52 52 52 52 51 52
39 40 39 38 38 38 39 39 39 39 40 41 41 40 38 38 39 39 39 40 40 41 42 43 43 45 46 47 47 47 48 48 49 50 50 51 50 51 51 52 52 52 52 52
39 40 40 39 39 39 39 39 39 39 39 40 42 41 39 39 40 40 39 40 41 42 43 44 44 45 46 46 46 46 47 48 48 49 48 49 49 49 50 52 53 53 52 53
40 40 41 40 40 40 40 40 39 40 41 41 41 40 39 39 40 40 40 40 40 41 42 43 43 44 44 45 45 46 46 47 48 48 48 48 48 49 50 52 53 53 54 53
40 40 41 41 40 41 40 40 40 40 41 42 41 40 37 39 40 40 41 41 40 41 41 42 42 43 43 43 44 45 46 47 47 48 48 48 48 49 50 51 53 53 53 53
40 40 40 40 40 41 41 40 39 39 39 40 39 39 38 39 40 41 42 42 41 41 42 42 42 42 43 43 44 45 45 46 46 47 48 48 48 49 49 50 51 52 52 52
39 40 40 39 38 39 39 39 38 38 37 38 38 38 38 39 40 40 41 42 42 42 42 42 42 42 42 42 42 43 44 44 44 44 45 46 46 47 48 49 49 49 50 50
38 39 40 39 38 39 38 36 36 36 36 37 37 36 36 38 39 39 40 40 41 41 41 42 42 42 43 43 43 42 42 42 42 42 43 44 44 45 45 46 46 47 48 48
37 38 39 39 38 38 36 36 35 35 35 35 35 35 36 37 38 39 39 40 40 40 41 41 41 42 43 43 43 42 41 41 41 41 42 43 43 43 44 44 44 45 46 46
36 37 37 37 38 38 36 35 35 35 34 35 35 36 37 38 38 39 40 40 41 41 41 41 41 41 42 42 42 41 41 40 40 40 40 40 41 41 41 41 42 43 43 43
34 35 36 36 37 38 35 35 36 36 36 35 36 37 37 38 38 38 39 40 40 40 40 40 41 41 41 40 40 40 39 39 39 39 38 39 39 39 39 40 40 41 42 42
32 32 33 34 36 35 34 35 36 37 37 37 37 38 38 39 39 39 38 39 39 39 39 40 40 40 40 40 39 38 38 38 38 38 38 38 38 38 38 39 39 40 41 40
30 30 31 33 34 34 33 34 36 37 37 37 38 38 39 39 39 39 38 38 38 38 38 39 39 39 39 38 38 37 37 37 37 37 37 37 38 38 38 38 39 39 39 40
29 30 31 31 32 32 33 34 35 36 37 38 38 38 39 39 38 38 38 38 38 38 38 38 37 37 37 37 37 37 36 36 36 36 36 37 37 37 38 37 37 37 38 38
29 30 31 32 32 32 33 34 34 35 36 37 38 38 39 39 38 38 37 38 38 38 38 37 37 36 36 36 36 36 36 36 35 35 35 35 36 36 36 36 36 36 36 37
31 33 33 34 34 34 33 34 35 35 35 36 37 38 38 38 38 38 37 37 37 36 36 36 36 36 35 35 35 35 35 35 35 35 35 35 35 35 35 35 35 35 35 34
30 32 34 34 34 35 34 34 35 36 36 37 37 38 38 38 38 38 38 37 36 35 35 35 34 34 34 34 33 34 34 34 34 34 35 35 35 35 35 34 33 33 33 33
Wind_Direction
288 288 287 287 286 284 283 281 280 279 277 276 275 275 274 272 271 270 270 270 270 270 269 269 269 269 269 269 269 269 268 267 267 267 266 266 265 264 263 262 260 260 259 257
288 288 288 287 286 284 283 281 280 278 277 277 276 274 273 271 270 270 270 270 270 270 270 270 269 270 270 270 270 269 268 268 267 267 267 266 265 264 263 262 260 260 259 258
288 289 289 288 286 285 283 282 280 279 278 277 276 274 273 271 271 271 271 271 272 271 270 270 270 271 271 271 270 269 268 268 267 268 268 267 266 265 264 263 261 260 259 258
290 289 289 288 287 286 284 282 281 281 279 278 278 277 274 274 273 273 273 272 272 272 271 270 270 271 272 271 270 269 269 268 267 267 267 267 266 265 265 263 261 260 258 257
291 291 290 289 287 286 284 282 281 282 280 279 278 279 278 277 276 276 275 274 273 272 272 271 270 270 271 271 270 269 269 268 268 267 267 266 265 265 265 264 262 259 257 257
292 291 290 290 288 286 285 284 283 282 281 280 280 281 281 279 279 278 278 277 274 272 272 271 270 270 270 271 270 269 269 269 267 267 266 266 265 264 264 263 261 260 259 258
293 291 291 291 290 288 286 286 285 284 282 283 283 282 282 282 280 280 279 278 276 274 273 272 271 271 271 271 270 269 269 268 267 266 266 265 266 266 265 263 262 261 260 258
294 293 293 292 291 290 288 287 287 287 285 285 284 283 285 282 282 281 280 278 277 276 274 273 273 273 272 272 270 269 269 268 268 266 265 265 266 265 264 263 263 261 260 258
296 295 294 294 293 291 291 289 289 289 288 287 285 285 285 284 284 284 282 279 277 276 276 275 275 275 273 273 272 270 270 269 268 267 266 266 265 265 264 264 262 261 261 260
296 296 295 294 293 292 291 292 292 290 290 289 287 287 288 286 286 285 283 281 279 278 277 276 276 276 275 274 273 271 271 270 269 268 268 267 266 266 264 264 264 263 264 262
296 295 295 294 293 293 293 291 290 290 289 288 287 287 287 286 287 287 286 284 282 280 279 278 278 278 277 276 274 273 272 271 270 270 269 269 268 266 264 263 263 264 264 263
295 294 294 294 293 293 293 292 290 289 289 286 286 287 287 286 286 286 287 286 284 282 280 279 278 278 278 277 276 275 273 272 271 271 270 269 268 266 265 264 264 264 264 264
295 295 295 293 294 294 293 291 290 289 288 287 286 288 288 287 287 287 287 286 284 283 281 281 280 279 278 277 276 276 276 275 272 272 270 270 270 269 267 266 265 264 264 264
293 293 293 292 293 293 292 291 290 289 289 289 288 288 287 286 286 286 286 286 285 284 283 282 282 281 280 279 279 278 278 277 275 273 272 271 271 270 269 268 266 266 265 264
291 292 293 291 290 291 291 290 290 289 290 289 289 286 286 285 285 285 285 286 286 285 285 284 283 282 281 281 280 281 280 279 277 275 274 273 272 271 271 270 268 267 266 265
291 292 293 291 290 290 290 290 290 290 289 289 290 288 286 285 285 286 286 285 285 285 284 284 284 283 283 283 282 282 282 281 279 276 275 275 274 273 272 271 269 268 267 266
291 293 294 293 291 290 291 293 291 290 290 290 291 291 290 289 289 289 288 287 287 286 286 284 283 283 283 283 284 284 283 282 280 278 276 275 274 273 272 271 270 269 268 266
293 293 294 295 293 291 294 293 292 292 292 292 293 293 292 292 291 291 290 289 288 288 287 286 285 285 284 284 284 284 284 283 282 280 277 276 275 273 272 271 270 270 269 267
294 293 294 295 294 293 293 293 294 293 293 295 295 295 294 294 293 293 292 291 290 289 288 287 286 285 285 285 285 285 284 284 282 281 279 277 276 274 273 272 271 270 269 268
294 294 294 294 293 295 295 294 293 294 295 296 296 296 296 296 295 295 294 293 292 290 289 288 287 286 286 285 285 285 284 283 282 281 280 279 277 276 274 274 272 272 270 269
296 295 295 294 294 296 297 295 295 296 298 298 298 297 297 297 297 297 295 295 294 292 291 290 289 287 286 286 285 285 284 283 282 282 281 280 279 277 276 275 274 273 271 268
297 297 298 298 298 299 299 298 297 297 297 298 299 299 298 298 297 297 297 296 294 293 292 291 290 288 287 286 286 285 285 284 283 282 282 282 281 280 279 278 277 275 272 269
297 298 299 299 300 300 299 299 299 298 297 297 298 299 299 298 298 298 298 296 295 294 293 292 291 289 288 287 286 286 285 284 283 283 283 282 282 282 281 280 279 277 274 271
296 297 298 299 301 301 300 299 299 300 300 300 299 300 299 299 299 298 298 297 297 295 294 292 292 290 289 288 288 287 286 285 284 283 283 283 284 284 284 282 280 278 275 272
297 298 299 299 300 300 300 300 300 300 300 300 300 301 301 300 299 298 297 297 297 296 295 293 292 291 290 289 288 288 287 286 285 285 285 284 285 285 285 284 282 279 277 274
300 299 299 300 301 300 300 301 301 301 300 301 301 301 301 301 300 298 297 296 296 295 295 294 293 291 289 289 288 287 287 288 288 287 286 286 285 285 285 285 282 279 278 276
Height
5713 5711 5708 5706 5703 5701 5699 5697 5696 5695 5692 5691 5690 5690 5690 5689 5689 5689 5689 5689 5689 5689 5688 5688 5687 5687 5686 5686 5685 5685 5684 5684 5684 5684 5684 5684 5683 5684 5685 5686 5687 5689 5691 5694
5705 5702 5700 5697 5694 5691 5689 5687 5686 5685 5682 5680 5680 5680 5681 5680 5679 5679 5678 5678 5678 5678 5677 5677 5676 5675 5675 5675 5674 5673 5673 5673 5673 5673 5673 5673 5673 5673 5674 5675 5676 5677 5679 5681
5695 5694 5691 5687 5685 5682 5680 5678 5676 5674 5672 5670 5669 5670 5671 5670 5669 5669 5668 5667 5667 5667 5666 5665 5665 5664 5664 5663 5662 5662 5662 5661 5661 5661 5661 5661 5661 5662 5663 5663 5664 5665 5666 5669
5686 5684 5681 5678 5675 5672 5670 5668 5665 5663 5661 5660 5659 5657 5661 5659 5659 5658 5658 5656 5656 5655 5654 5654 5653 5653 5652 5651 5650 5650 5650 5649 5649 5649 5649 5649 5649 5650 5651 5651 5652 5652 5654 5656
5677 5675 5671 5668 5666 5662 5659 5657 5655 5652 5650 5648 5648 5645 5648 5648 5648 5647 5646 5645 5643 5643 5643 5642 5641 5641 5640 5639 5638 5638 5637 5636 5636 5636 5636 5636 5636 5637 5638 5638 5639 5639 5641 5643
5668 5665 5662 5659 5656 5652 5649 5647 5644 5641 5639 5638 5638 5635 5635 5636 5636 5635 5633 5632 5631 5631 5630 5630 5629 5628 5627 5626 5625 5625 5624 5623 5623 5622 5622 5623 5623 5624 5624 5625 5626 5627 5628 5629
5659 5656 5652 5649 5646 5643 5640 5637 5633 5630 5628 5627 5627 5623 5624 5625 5623 5622 5621 5620 5619 5618 5617 5617 5616 5615 5614 5613 5612 5611 5610 5610 5609 5609 5609 5609 5609 5610 5611 5611 5612 5613 5614 5616
5649 5647 5643 5639 5636 5633 5630 5627 5625 5621 5618 5617 5615 5613 5615 5614 5612 5610 5609 5608 5607 5606 5605 5604 5603 5602 5600 5599 5598 5598 5597 5596 5596 5595 5595 5595 5595 5596 5596 5597 5597 5598 5600 5601
5639 5637 5634 5630 5626 5624 5620 5618 5615 5611 5607 5605 5604 5604 5604 5603 5601 5599 5598 5596 5595 5594 5593 5591 5590 5589 5587 5586 5585 5584 5583 5582 5581 5581 5580 5581 5581 5581 5581 5582 5583 5584 5585 5586
5629 5627 5625 5622 5618 5615 5612 5609 5605 5601 5597 5594 5594 5594 5594 5592 5590 5588 5586 5584 5583 5582 5581 5579 5578 5576 5574 5572 5571 5570 5569 5568 5567 5566 5566 5566 5566 5566 5566 5567 5568 5569 5570 5571
5620 5617 5615 5612 5609 5606 5603 5600 5595 5591 5588 5585 5582 5586 5584 5581 5579 5577 5575 5573 5571 5570 5569 5567 5565 5563 5561 5560 5558 5556 5555 5554 5553 5552 5551 5551 5551 5551 5551 5552 5552 5553 5555 5556
5611 5607 5604 5603 5600 5596 5593 5590 5586 5583 5579 5575 5572 5576 5574 5571 5568 5565 5563 5561 5560 5558 5556 5554 5553 5551 5549 5547 5545 5543 5542 5541 5539 5538 5537 5537 5536 5536 5536 5537 5537 5538 5539 5540
5601 5598 5594 5592 5592 5588 5583 5580 5576 5573 5569 5566 5563 5566 5563 5560 5557 5554 5552 5550 5548 5546 5544 5542 5541 5539 5536 5535 5533 5531 5529 5527 5526 5524 5523 5522 5522 5521 5521 5522 5522 5523 5523 5524
5590 5587 5585 5583 5579 5576 5573 5570 5567 5562 5558 5555 5554 5554 5553 5549 5546 5544 5541 5539 5536 5534 5532 5530 5528 5526 5524 5522 5520 5518 5516 5514 5512 5511 5509 5508 5507 5507 5507 5506 5507 5507 5508 5509
5580 5577 5574 5572 5569 5565 5562 5560 5557 5553 5549 5545 5544 5542 5541 5537 5535 5532 5530 5527 5525 5522 5520 5518 5516 5514 5512 5510 5508 5505 5503 5501 5498 5497 5495 5494 5493 5492 5492 5492 5492 5492 5493 5493
5570 5567 5564 5562 5559 5555 5551 5550 5547 5543 5540 5536 5533 5532 5530 5526 5523 5521 5518 5516 5513 5511 5508 5506 5504 5501 5499 5497 5495 5492 5490 5488 5485 5483 5482 5480 5479 5478 5478 5477 5477 5477 5478 5478
5561 5557 5553 5551 5548 5544 5542 5541 5537 5534 5531 5527 5524 5523 5519 5516 5513 5510 5507 5504 5501 5499 5496 5494 5492 5489 5487 5484 5482 5480 5477 5475 5473 5470 5469 5467 5466 5465 5464 5464 5463 5463 5463 5464
5551 5547 5543 5540 5538 5535 5536 5531 5528 5524 5522 5518 5515 5512 5509 5506 5502 5499 5496 5493 5490 5487 5484 5482 5479 5477 5474 5472 5469 5467 5464 5462 5460 5458 5456 5454 5453 5452 5451 5450 5450 5449 5449 5449
5542 5538 5534 5530 5526 5525 5526 5522 5518 5514 5513 5510 5505 5502 5499 5495 5492 5490 5486 5482 5479 5476 5473 5470 5467 5464 5462 5459 5457 5455 5452 5450 5448 5445 5444 5442 5440 5439 5438 5437 5436 5436 5435 5435
5533 5529 5526 5522 5517 5515 5517 5513 5508 5506 5504 5501 5496 5492 5489 5485 5482 5481 5476 5472 5468 5464 5461 5458 5455 5453 5450 5448 5445 5443 5441 5438 5436 5434 5432 5430 5428 5427 5426 5424 5423 5423 5422 5422
5525 5521 5518 5514 5509 5508 5508 5503 5499 5497 5495 5491 5486 5482 5479 5475 5471 5468 5464 5461 5457 5454 5450 5447 5444 5441 5439 5436 5434 5431 5429 5427 5424 5422 5420 5418 5417 5415 5414 5412 5411 5410 5410 5410
5516 5513 5510 5506 5502 5503 5499 5494 5491 5488 5484 5480 5476 5472 5468 5464 5461 5457 5453 5450 5446 5443 5439 5436 5433 5430 5427 5425 5423 5420 5418 5415 5413 5411 5409 5407 5405 5403 5402 5400 5399 5398 5397 5397
5509 5507 5502 5500 5498 5494 5489 5486 5482 5478 5474 5470 5466 5463 5458 5454 5451 5447 5443 5440 5436 5432 5428 5425 5422 5419 5417 5414 5411 5409 5407 5404 5402 5399 5397 5396 5394 5392 5390 5388 5387 5386 5385 5384
5502 5498 5495 5491 5489 5485 5481 5477 5473 5469 5464 5460 5456 5452 5448 5444 5441 5437 5433 5429 5425 5421 5418 5415 5412 5409 5406 5403 5400 5398 5396 5393 5391 5389 5387 5385 5383 5381 5379 5377 5375 5374 5373 5373
5494 5490 5486 5483 5481 5477 5473 5469 5464 5460 5456 5451 5447 5443 5438 5434 5430 5426 5422 5419 5415 5411 5408 5404 5401 5398 5395 5392 5389 5387 5385 5383 5380 5378 5376 5374 5372 5370 5368 5366 5364 5363 5362 5361
5487 5483 5479 5475 5472 5468 5464 5460 5455 5451 5447 5442 5438 5434 5429 5424 5420 5416 5412 5408 5404 5401 5398 5394 5391 5388 5385 5382 5380 5377 5375 5372 5370 5368 5365 5363 5361 5359 5357 5355 5353 5351 5351 5350